Wichita Jabara, KS

1:21 AM CDT on March 25, 2017 (GMT -0500)
Col Jabara

Weather History for KAAO - February, 2014

Change the Weather History Date:

Tuesday, February 4, 2014

  Actual Average (KIAB) Record (KIAB)
Temperature  
Mean Temperature 22 °F -  
Max Temperature 30 °F 43 °F 68 °F (2008)
Min Temperature 12 °F 25 °F 5 °F (2011)
Degree Days  
Heating Degree Days 42    
Moisture  
Dew Point 21 °F    
Average Humidity 87    
Maximum Humidity 96    
Minimum Humidity 50    
Precipitation  
Precipitation 0.31 in - - ()
Sea Level Pressure  
Sea Level Pressure 30.01 in    
Wind  
Wind Speed 11 mph (NE)    
Max Wind Speed 24 mph    
Max Gust Speed 30 mph    
Visibility 2 miles    
Events Fog , Snow    
Averages and records for this station are not official NWS values.
T = Trace of Precipitation, MM = Missing Value Source: NWS Daily Summary

Daily Weather History Graph

Daily Weather History Graph

Search for Another Location

Airport or City:

Trip Planner

Search our weather history database for the weather conditions in past years. The results will help you decide how hot, cold, wet, or windy it might be!

Date:

Astronomy

Feb. 04, 2014 Rise Set
Actual Time 7:30 AM CST 5:55 PM CST
Civil Twilight 7:02 AM CST 6:23 PM CST
Nautical Twilight 6:31 AM CST 6:54 PM CST
Astronomical Twilight 6:00 AM CST 7:25 PM CST
Moon 10:15 AM CST (2/4) 11:44 PM CST (2/4)
Length of Visible Light 11h 20m
Length of Day
10h 25m
Waxing Crescent, 29% of the Moon is Illuminated
Feb 4
Waxing Crescent
Feb 6
First Quarter
Feb 14
Full
Feb 22
Last Quarter
Mar 1
New

Hourly Weather History & Observations

Time (CST) Temp. Windchill Dew Point Humidity Pressure Visibility Wind Dir Wind Speed Gust Speed Precip Events Conditions
12:54 AM 30.9 °F 25.2 °F 14.0 °F 50% 30.13 in 10.0 mi East 5.8 mph - N/A   Overcast
1:54 AM 30.9 °F 25.2 °F 16.0 °F 54% 30.12 in 10.0 mi ENE 5.8 mph - N/A   Overcast
2:50 AM 28.4 °F 21.2 °F 19.4 °F 69% 30.09 in 3.0 mi ENE 6.9 mph - 0.00 in Snow Light Snow
2:54 AM 28.9 °F 22.8 °F 19.0 °F 67% 30.13 in 3.0 mi ENE 5.8 mph - 0.00 in Snow Light Snow
3:54 AM 28.9 °F 21.9 °F 21.0 °F 72% 30.13 in 10.0 mi ENE 6.9 mph - 0.00 in   Overcast
4:54 AM 28.0 °F 18.1 °F 21.9 °F 78% 30.10 in 5.0 mi East 11.5 mph - 0.00 in Snow Light Snow
5:25 AM 26.6 °F 16.2 °F 23.0 °F 86% 30.04 in 3.0 mi East 11.5 mph 18.4 mph 0.00 in Snow Light Snow
5:32 AM 26.6 °F 16.2 °F 23.0 °F 86% 30.03 in 3.0 mi East 11.5 mph - 0.00 in Snow Light Snow
5:54 AM 27.0 °F 17.3 °F 23.0 °F 85% 30.06 in 5.0 mi ENE 10.4 mph - 0.00 in Snow Light Snow
6:49 AM 26.6 °F 15.7 °F 24.8 °F 93% 29.99 in 5.0 mi ENE 12.7 mph - 0.00 in Snow Light Snow
6:54 AM 26.1 °F 15.6 °F 24.1 °F 92% 30.05 in 5.0 mi East 11.5 mph - 0.00 in Snow Light Snow
7:10 AM 26.6 °F 15.2 °F 24.8 °F 93% 29.99 in 1.8 mi East 13.8 mph - 0.00 in Snow Light Snow
7:23 AM 26.6 °F 16.2 °F 24.8 °F 93% 29.99 in 0.8 mi East 11.5 mph - 0.00 in Snow Light Snow
7:31 AM 26.6 °F 17.5 °F 24.8 °F 93% 30.00 in 0.8 mi East 9.2 mph - 0.00 in Snow Light Snow
7:54 AM 26.1 °F 15.6 °F 24.1 °F 92% 30.03 in 0.8 mi East 11.5 mph - 0.00 in Snow Light Snow
8:05 AM 26.6 °F 16.2 °F 24.8 °F 93% 29.97 in 0.2 mi ENE 11.5 mph 17.3 mph 0.00 in Fog , Snow Heavy Snow
8:54 AM 26.1 °F 18.4 °F 24.1 °F 92% 30.04 in 0.2 mi East 6.9 mph - 0.00 in Fog , Snow Heavy Snow
9:12 AM 26.6 °F 18.2 °F 24.8 °F 93% 29.98 in 0.2 mi ENE 8.1 mph - 0.00 in Fog , Snow Heavy Snow
9:41 AM 26.6 °F 16.8 °F 24.8 °F 93% 30.01 in 0.2 mi East 10.4 mph - 0.00 in Fog , Snow Heavy Snow
9:54 AM 26.1 °F 18.4 °F 25.0 °F 96% 30.06 in 0.2 mi ENE 6.9 mph - 0.00 in Fog , Snow Heavy Snow
10:18 AM 26.6 °F 17.5 °F 24.8 °F 93% 30.02 in 0.2 mi East 9.2 mph - 0.00 in Fog , Snow Heavy Snow
10:44 AM 26.6 °F 16.2 °F 24.8 °F 93% 30.00 in 0.2 mi East 11.5 mph - 0.00 in Fog , Snow Snow
10:54 AM 25.0 °F 13.1 °F 23.0 °F 92% 30.04 in 0.2 mi East 13.8 mph 20.7 mph 0.00 in Fog , Snow Snow
11:08 AM 26.6 °F 14.3 °F 23.0 °F 86% 29.99 in 0.5 mi ENE 16.1 mph - 0.00 in Fog , Snow Snow
11:25 AM 26.6 °F 16.2 °F 24.8 °F 93% 29.97 in 0.8 mi ENE 11.5 mph 20.7 mph 0.00 in Snow Light Snow
11:37 AM 26.6 °F 15.7 °F 24.8 °F 93% 29.96 in 0.8 mi ENE 12.7 mph 17.3 mph 0.00 in Snow Light Snow
11:54 AM 26.1 °F 14.5 °F 23.0 °F 88% 30.00 in 0.8 mi ENE 13.8 mph - 0.00 in Snow Light Snow
12:01 PM 26.6 °F 15.7 °F 23.0 °F 86% 29.94 in 1.8 mi NE 12.7 mph - 0.00 in Snow Light Snow
12:08 PM 26.6 °F 14.7 °F 23.0 °F 86% 29.94 in 2.0 mi NE 15.0 mph - 0.00 in Snow Light Snow
12:22 PM 26.6 °F 15.7 °F 23.0 °F 86% 29.92 in 1.5 mi NE 12.7 mph - 0.00 in Snow Light Snow
12:54 PM 27.0 °F 16.7 °F 24.1 °F 89% 29.95 in 1.5 mi ENE 11.5 mph - 0.00 in Snow Light Snow
1:02 PM 26.6 °F 14.3 °F 23.0 °F 86% 29.90 in 3.0 mi ENE 16.1 mph 21.9 mph 0.00 in Snow Light Snow
1:36 PM 26.6 °F 14.7 °F 23.0 °F 86% 29.90 in 2.0 mi ENE 15.0 mph 21.9 mph 0.00 in Snow Light Snow
1:54 PM 27.0 °F 17.3 °F 23.0 °F 85% 29.95 in 3.0 mi ENE 10.4 mph - 0.00 in Snow Light Snow
2:00 PM 26.6 °F 18.2 °F 23.0 °F 86% 29.91 in 1.8 mi ENE 8.1 mph - 0.00 in Snow Light Snow
2:15 PM 26.6 °F 16.8 °F 24.8 °F 93% 29.90 in 0.8 mi ENE 10.4 mph - 0.00 in Snow Light Snow
2:24 PM 26.6 °F 16.8 °F 23.0 °F 86% 29.90 in 1.2 mi ENE 10.4 mph - 0.00 in Snow Light Snow
2:31 PM 26.6 °F 16.2 °F 23.0 °F 86% 29.90 in 1.0 mi ENE 11.5 mph - 0.00 in Snow Light Snow
2:41 PM 26.6 °F 17.5 °F 23.0 °F 86% 29.91 in 0.8 mi ENE 9.2 mph - 0.00 in Snow Light Snow
2:52 PM 26.6 °F 15.2 °F 23.0 °F 86% 29.91 in 2.0 mi ENE 13.8 mph 19.6 mph 0.00 in Snow Light Snow
2:54 PM 26.1 °F 15.6 °F 21.9 °F 84% 29.96 in 3.0 mi ENE 11.5 mph - 0.00 in Snow Light Snow
3:24 PM 26.6 °F 16.2 °F 23.0 °F 86% 29.91 in 3.0 mi NE 11.5 mph 17.3 mph 0.00 in   Overcast
3:32 PM 26.6 °F 15.2 °F 23.0 °F 86% 29.92 in 3.0 mi ENE 13.8 mph 20.7 mph 0.00 in   Overcast
3:54 PM 25.0 °F 13.1 °F 21.9 °F 88% 29.97 in 3.0 mi NE 13.8 mph - 0.00 in   Overcast
4:10 PM 24.8 °F 14.0 °F 21.2 °F 86% 29.92 in 2.5 mi NE 11.5 mph - N/A   Overcast
4:28 PM 24.8 °F 13.4 °F 23.0 °F 93% 29.92 in 2.0 mi NNE 12.7 mph - N/A   Overcast
4:39 PM 24.8 °F 12.4 °F 23.0 °F 93% 29.93 in 1.8 mi NNE 15.0 mph - 0.02 in Snow Light Snow
4:54 PM 24.1 °F 10.6 °F 21.9 °F 91% 29.99 in 1.8 mi NNE 17.3 mph - 0.19 in Snow Light Snow
5:28 PM 23.0 °F 9.6 °F 19.4 °F 86% 29.95 in 0.8 mi NNE 16.1 mph 23.0 mph 0.11 in Snow Light Snow
5:54 PM 21.9 °F 8.7 °F 19.9 °F 92% 30.02 in 0.2 mi NNE 15.0 mph 23.0 mph 0.11 in Fog , Snow Snow
6:11 PM 21.2 °F 8.3 °F 19.4 °F 93% 29.98 in 1.0 mi NNE 13.8 mph - 0.01 in Snow Light Snow
6:24 PM 21.2 °F 7.8 °F 19.4 °F 93% 29.99 in 1.2 mi North 15.0 mph - 0.01 in Snow Light Snow
6:54 PM 21.0 °F 6.6 °F 18.0 °F 88% 30.07 in 1.5 mi North 17.3 mph 25.3 mph 0.01 in Snow Light Snow
7:22 PM 19.4 °F 3.6 °F 17.6 °F 93% 30.04 in 2.0 mi North 19.6 mph 27.6 mph 0.00 in Snow Light Snow
7:54 PM 19.9 °F 5.2 °F 17.1 °F 89% 30.12 in 2.5 mi North 17.3 mph 24.2 mph 0.00 in Snow Light Snow
8:05 PM 19.4 °F 3.2 °F 15.8 °F 86% 30.06 in 2.0 mi North 20.7 mph - 0.00 in Snow Light Snow
8:13 PM 19.4 °F 3.2 °F 15.8 °F 86% 30.06 in 2.0 mi North 20.7 mph - 0.00 in Snow Light Snow
8:29 PM 19.4 °F 2.8 °F 15.8 °F 86% 30.07 in 3.0 mi North 21.9 mph 28.8 mph 0.00 in Snow Light Snow
8:54 PM 19.0 °F 3.6 °F 15.1 °F 85% 30.15 in 6.0 mi North 18.4 mph 29.9 mph 0.00 in   Overcast
9:54 PM 19.0 °F 2.0 °F 16.0 °F 88% 30.20 in 5.0 mi North 23.0 mph 29.9 mph 0.00 in Snow Light Snow
10:22 PM 17.6 °F 0.9 °F 14.0 °F 86% 30.15 in 4.0 mi North 20.7 mph 26.5 mph 0.00 in Snow Light Snow
10:47 PM 15.8 °F -2.7 °F 12.2 °F 86% 30.18 in 4.0 mi North 24.2 mph 28.8 mph 0.00 in Snow Light Snow
10:54 PM 16.0 °F 0.1 °F 12.0 °F 84% 30.25 in 4.0 mi North 17.3 mph 28.8 mph 0.00 in   Overcast
11:54 PM 12.0 °F -6.9 °F 7.0 °F 80% 30.29 in 5.0 mi North 21.9 mph 28.8 mph 0.00 in Snow Light Snow